When you browse on this site, cookies collect data to enhance your experience and personalize the content and advertising you see.
Visit our Privacy Policy to learn more. By continuing to use the site, you agree to this use of cookies and data.
  • In Romania
  • List of Countries
  • For 7 days
  • Water Temperature
  • Satellite Maps
  • Weather Map
  • Weather Widgets
  • user-avatar
    Login

    Hourly Weather Córdoba

    Today, 22 March, Friday

    Time Temperature Precipitation Wind Pressure Humidity
    00:00 +13°C° 0 mm 2 mps 725 mmHg 71%
    01:00 +13°C° 0 mm 2 mps 725 mmHg 72%
    02:00 +13°C° 0 mm 2 mps 725 mmHg 73%
    03:00 +13°C° 0 mm 2 mps 725 mmHg 75%
    04:00 +13°C° 0 mm 2 mps 725 mmHg 76%
    05:00 +13°C° 0 mm 2 mps 725 mmHg 77%
    06:00 +14°C° 0 mm 2 mps 725 mmHg 73%
    07:00 +15°C° 0 mm 2 mps 726 mmHg 69%
    08:00 +17°C° 0 mm 2 mps 726 mmHg 62%
    09:00 +19°C° 0 mm 2 mps 726 mmHg 57%
    10:00 +23°C° 0 mm 2 mps 726 mmHg 52%
    11:00 +25°C° 0 mm 3 mps 727 mmHg 47%
    12:00 +26°C° 0 mm 3 mps 726 mmHg 44%
    13:00 +27°C° 0 mm 3 mps 726 mmHg 42%
    14:00 +28°C° 0 mm 3 mps 725 mmHg 39%
    15:00 +28°C° 0 mm 3 mps 725 mmHg 41%
    16:00 +28°C° 0 mm 3 mps 725 mmHg 43%
    17:00 +27°C° 0 mm 3 mps 724 mmHg 44%
    18:00 +25°C° 0 mm 3 mps 724 mmHg 51%
    19:00 +23°C° 0 mm 2 mps 724 mmHg 57%
    20:00 +20°C° 0 mm 1 mps 724 mmHg 64%
    21:00 +20°C° 0 mm 1 mps 725 mmHg 66%
    22:00 +19°C° 0 mm 1 mps 725 mmHg 68%
    23:00 +19°C° 0 mm 1 mps 725 mmHg 70%

    Tomorrow, 23 March, Saturday

    Time Temperature Precipitation Wind Pressure Humidity
    00:00 +19°C° 0 mm 1 mps 725 mmHg 71%
    01:00 +19°C° 0 mm 1 mps 725 mmHg 72%
    02:00 +18°C° 0 mm 1 mps 725 mmHg 73%
    03:00 +17°C° 0 mm 2 mps 725 mmHg 74%
    04:00 +17°C° 0 mm 2 mps 725 mmHg 75%
    05:00 +17°C° 0 mm 2 mps 724 mmHg 76%
    06:00 +18°C° 0 mm 2 mps 725 mmHg 72%
    07:00 +20°C° 0 mm 3 mps 725 mmHg 67%
    08:00 +21°C° 0 mm 3 mps 725 mmHg 63%
    09:00 +23°C° 0 mm 4 mps 725 mmHg 55%
    10:00 +27°C° 0 mm 5 mps 725 mmHg 48%
    11:00 +29°C° 0 mm 5 mps 725 mmHg 41%
    12:00 +30°C° 0 mm 5 mps 725 mmHg 39%
    13:00 +32°C° 0 mm 5 mps 724 mmHg 37%
    14:00 +33°C° 0 mm 5 mps 724 mmHg 35%
    15:00 +33°C° 0 mm 5 mps 723 mmHg 37%
    16:00 +32°C° 0 mm 5 mps 723 mmHg 38%
    17:00 +32°C° 0 mm 4 mps 722 mmHg 40%
    18:00 +29°C° 0 mm 4 mps 722 mmHg 45%
    19:00 +26°C° 0 mm 3 mps 723 mmHg 51%
    20:00 +24°C° 0 mm 2 mps 723 mmHg 56%
    21:00 +23°C° 0 mm 2 mps 723 mmHg 59%
    22:00 +23°C° 0 mm 2 mps 724 mmHg 61%
    23:00 +21°C° 0 mm 2 mps 724 mmHg 64%

    Day after tomorrow, 24 March, Sunday

    Time Temperature Precipitation Wind Pressure Humidity
    00:00 +21°C° 0 mm 2 mps 724 mmHg 63%
    01:00 +21°C° 0 mm 2 mps 724 mmHg 63%
    02:00 +21°C° 0 mm 2 mps 724 mmHg 63%
    03:00 +21°C° 0 mm 2 mps 724 mmHg 63%
    04:00 +20°C° 0 mm 2 mps 724 mmHg 63%
    05:00 +20°C° 0 mm 2 mps 724 mmHg 63%
    06:00 +21°C° 0 mm 3 mps 725 mmHg 60%
    07:00 +22°C° 0 mm 4 mps 725 mmHg 56%
    08:00 +23°C° 0 mm 5 mps 726 mmHg 53%
    09:00 +25°C° 0 mm 5 mps 726 mmHg 46%
    10:00 +26°C° 0 mm 5 mps 726 mmHg 40%
    11:00 +27°C° 0 mm 5 mps 727 mmHg 33%
    12:00 +28°C° 0 mm 5 mps 726 mmHg 33%
    13:00 +29°C° 0 mm 5 mps 726 mmHg 33%
    14:00 +29°C° 0 mm 5 mps 725 mmHg 33%
    15:00 +29°C° 0 mm 4 mps 725 mmHg 35%
    16:00 +28°C° 0 mm 4 mps 724 mmHg 38%
    17:00 +27°C° 0 mm 4 mps 724 mmHg 40%
    18:00 +25°C° 0 mm 3 mps 724 mmHg 45%
    19:00 +23°C° 0 mm 2 mps 724 mmHg 50%
    20:00 +21°C° 0 mm 1 mps 725 mmHg 56%
    21:00 +20°C° 0 mm 2 mps 725 mmHg 57%
    22:00 +19°C° 0 mm 2 mps 725 mmHg 58%
    23:00 +18°C° 0 mm 2 mps 726 mmHg 59%

    25 March, Monday

    Time Temperature Precipitation Wind Pressure Humidity
    00:00 +18°C° 0 mm 2 mps 725 mmHg 59%
    01:00 +19°C° 0 mm 1 mps 725 mmHg 58%
    02:00 +18°C° 0 mm 1 mps 725 mmHg 58%
    03:00 +18°C° 0 mm 1 mps 725 mmHg 56%
    04:00 +18°C° 0 mm 1 mps 725 mmHg 54%
    05:00 +18°C° 0 mm 1 mps 725 mmHg 52%
    06:00 +18°C° 0.2 mm 1 mps 725 mmHg 55%
    07:00 +16°C° 0.2 mm 2 mps 726 mmHg 58%
    08:00 +16°C° 0.2 mm 3 mps 726 mmHg 61%
    09:00 +17°C° 0.1 mm 2 mps 727 mmHg 61%
    10:00 +18°C° 0.1 mm 2 mps 727 mmHg 60%
    11:00 +18°C° 0.1 mm 2 mps 727 mmHg 60%
    12:00 +19°C° 0 mm 2 mps 727 mmHg 58%
    13:00 +19°C° 0 mm 2 mps 726 mmHg 57%
    14:00 +20°C° 0 mm 2 mps 726 mmHg 55%
    15:00 +19°C° 0.1 mm 2 mps 726 mmHg 61%
    16:00 +18°C° 0.1 mm 2 mps 726 mmHg 68%
    17:00 +17°C° 0.1 mm 2 mps 725 mmHg 74%
    18:00 +17°C° 0.6 mm 2 mps 726 mmHg 79%
    19:00 +16°C° 0.6 mm 1 mps 726 mmHg 84%
    20:00 +16°C° 0.6 mm 1 mps 727 mmHg 89%
    21:00 +15°C° 1.1 mm 1 mps 727 mmHg 90%
    22:00 +15°C° 1.1 mm 1 mps 727 mmHg 91%
    23:00 +15°C° 1.1 mm 1 mps 728 mmHg 92%

    26 March, Tuesday

    Time Temperature Precipitation Wind Pressure Humidity
    00:00 +15°C° 0.3 mm 1 mps 728 mmHg 92%
    01:00 +15°C° 0.3 mm 1 mps 728 mmHg 92%
    02:00 +15°C° 0.3 mm 1 mps 728 mmHg 92%
    03:00 +15°C° 0.1 mm 1 mps 728 mmHg 92%
    04:00 +15°C° 0.1 mm 1 mps 728 mmHg 92%
    05:00 +15°C° 0.1 mm 1 mps 728 mmHg 92%
    06:00 +15°C° 0.1 mm 1 mps 728 mmHg 91%
    07:00 +15°C° 0.1 mm 1 mps 729 mmHg 90%
    08:00 +15°C° 0.1 mm 2 mps 730 mmHg 89%
    09:00 +16°C° 0 mm 2 mps 730 mmHg 86%
    10:00 +16°C° 0 mm 2 mps 730 mmHg 83%
    11:00 +16°C° 0 mm 1 mps 730 mmHg 79%
    12:00 +16°C° 0 mm 1 mps 730 mmHg 76%
    13:00 +18°C° 0 mm 1 mps 730 mmHg 73%
    14:00 +18°C° 0 mm 1 mps 729 mmHg 70%
    15:00 +19°C° 0 mm 1 mps 729 mmHg 67%
    16:00 +19°C° 0 mm 1 mps 729 mmHg 64%
    17:00 +20°C° 0 mm 1 mps 729 mmHg 61%
    18:00 +19°C° 0 mm 1 mps 729 mmHg 65%
    19:00 +16°C° 0 mm 2 mps 730 mmHg 70%
    20:00 +15°C° 0 mm 2 mps 730 mmHg 75%
    21:00 +15°C° 0 mm 2 mps 730 mmHg 73%
    22:00 +16°C° 0 mm 2 mps 730 mmHg 72%
    23:00 +16°C° 0 mm 2 mps 731 mmHg 70%

    27 March, Wednesday

    Time Temperature Precipitation Wind Pressure Humidity
    00:00 +15°C° 0 mm 2 mps 730 mmHg 72%
    01:00 +15°C° 0 mm 2 mps 730 mmHg 74%
    02:00 +15°C° 0 mm 2 mps 730 mmHg 76%
    03:00 +14°C° 0 mm 2 mps 730 mmHg 78%
    04:00 +14°C° 0 mm 1 mps 730 mmHg 79%
    05:00 +13°C° 0 mm 1 mps 730 mmHg 81%
    06:00 +14°C° 0 mm 1 mps 730 mmHg 76%
    07:00 +14°C° 0 mm 1 mps 730 mmHg 72%
    08:00 +15°C° 0 mm 1 mps 731 mmHg 68%
    09:00 +15°C° 0 mm 1 mps 731 mmHg 68%
    10:00 +15°C° 0 mm 1 mps 731 mmHg 67%
    11:00 +16°C° 0 mm 1 mps 730 mmHg 67%
    12:00 +18°C° 0 mm 2 mps 730 mmHg 64%
    13:00 +19°C° 0 mm 2 mps 729 mmHg 61%
    14:00 +21°C° 0 mm 3 mps 729 mmHg 58%
    15:00 +21°C° 0 mm 3 mps 729 mmHg 59%
    16:00 +21°C° 0 mm 3 mps 728 mmHg 60%
    17:00 +21°C° 0 mm 3 mps 728 mmHg 61%
    18:00 +20°C° 0 mm 3 mps 728 mmHg 67%
    19:00 +18°C° 0 mm 2 mps 728 mmHg 74%
    20:00 +16°C° 0 mm 1 mps 728 mmHg 80%
    21:00 +16°C° 0 mm 1 mps 728 mmHg 81%
    22:00 +16°C° 0 mm 1 mps 728 mmHg 82%
    23:00 +16°C° 0 mm 1 mps 729 mmHg 82%
    Show more